Home > Weather > Catania > Past weeks

Flag for Italy Past Weather in Catania, Italy — Yesterday and Last 2 Weeks

Now
84 °F

Passing clouds.


Feels Like: 82 °F
Forecast: 64 / 87 °F
Wind: 3 mph from South

Location: Catania / Fontanarossa

Current Time: Aug 29, 2016 at 11:20:21 AM

Latest Report: Aug 29, 2016 at 10:50 AM


Visibility: N/A

Pressure: 30.04 "Hg

Humidity: 33%

Dew Point: 52 °F

Location of CataniaLocation

Past Weather in Catania — Graph

°F

Catania Temperature Yesterday

Maximum temperature yesterday: 86 °F (at 10:50 AM)
Minimum temperature yesterday: 64 °F (at 5:50 AM)
Average temperature yesterday: 77 °F

High & Low Weather Summary for the Past Weeks

 TemperatureHumidityPressure
High88 °F (Aug 17, 11:20 AM)88% (Aug 23, 11:50 AM)30.15 "Hg (Aug 23, 11:50 AM)
Low63 °F (Aug 16, 6:50 AM)24% (Aug 16, 9:50 AM)29.83 "Hg (Aug 18, 4:20 AM)
Average76 °F59%29.98 "Hg
* Reported Aug 14 9:20 AM — Aug 29 9:50 AM, Catania, Weather by CustomWeather, © 2016

Note: Actual official high and low records may vary slightly from our data, if they occured in-between our weather recording intervals... More about our weather records

Advertising

Catania Weather History for the Previous 24 Hours

Scroll right to see more
 ConditionsComfort  
Time TempWeatherWind HumidityBarometerVisibility
9:50 AM
Mon, Aug 29
81 °FPassing clouds.6 mph42%30.07 "HgN/A
9:20 AM79 °FPassing clouds.7 mph45%30.07 "HgN/A
8:50 AM75 °FSunny.7 mph50%30.07 "Hg10 mi
8:20 AM72 °FPassing clouds.5 mph61%30.07 "HgN/A
7:50 AM70 °FSunny.7 mph64%30.04 "Hg10 mi
7:20 AM68 °FClear.6 mph69%30.04 "Hg10 mi
6:50 AM68 °FClear.5 mph73%30.04 "Hg10 mi
6:20 AM68 °FClear.6 mph69%30.04 "Hg10 mi
5:20 AM66 °FClear.3 mph78%30.04 "Hg10 mi
4:50 AM68 °FClear.7 mph73%30.04 "Hg10 mi
4:20 AM68 °FClear.6 mph83%30.04 "Hg10 mi
3:50 AM70 °FClear.7 mph78%30.04 "Hg10 mi
3:20 AM72 °FClear.5 mph78%30.07 "Hg10 mi
2:50 AM72 °FClear.3 mph73%30.07 "Hg10 mi
2:20 AM73 °FClear.5 mph74%30.07 "Hg10 mi
1:50 AM73 °FClear.7 mph74%30.07 "Hg10 mi
1:20 AM73 °FClear.7 mph74%30.07 "Hg10 mi
12:50 AM73 °FClear.6 mph74%30.07 "Hg10 mi
12:20 AM75 °FClear.6 mph74%30.09 "Hg10 mi
11:50 PM
Sun, Aug 28
77 °FPassing clouds.6 mph69%30.09 "HgN/A
11:20 PM77 °FPassing clouds.2 mph74%30.09 "HgN/A
10:50 PM77 °FPassing clouds.6 mph74%30.07 "HgN/A
10:20 PM79 °FPassing clouds.7 mph70%30.07 "HgN/A
9:50 PM79 °FPassing clouds.8 mph65%30.07 "HgN/A
8:50 PM79 °FPassing clouds.9 mph70%30.07 "HgN/A
8:20 PM79 °FScattered clouds.10 mph70%30.07 "HgN/A
7:50 PM79 °FScattered clouds.12 mph70%30.04 "HgN/A
7:20 PM79 °FSunny.12 mph70%30.07 "Hg10 mi
6:50 PM81 °FSunny.9 mph66%30.07 "Hg10 mi
6:20 PM81 °FSunny.12 mph62%30.07 "Hg10 mi
5:50 PM82 °FPassing clouds.12 mph62%30.07 "HgN/A
5:20 PM82 °FSunny.15 mph51%30.04 "Hg10 mi
4:50 PM82 °FSunny.14 mph55%30.07 "Hg10 mi
4:20 PM84 °FSunny.16 mph51%30.07 "Hg10 mi
3:50 PM84 °FSunny.17 mph45%30.07 "Hg10 mi
3:20 PM86 °FPassing clouds.16 mph31%30.07 "HgN/A
2:50 PM86 °FPassing clouds.16 mph33%30.07 "HgN/A
2:20 PM84 °FPassing clouds.15 mph45%30.07 "HgN/A
1:50 PM84 °FPassing clouds.13 mph45%30.07 "HgN/A
11:50 AM84 °FPassing clouds.9 mph43%30.09 "HgN/A
11:20 AM84 °FSunny.8 mph43%30.09 "Hg10 mi
Weather by CustomWeather, © 2016

See weather overviewHow to use our weather pages